Flag for Germany Weather past 2 weeks in Stuttgart, Baden-Württemberg, Germany

Now
64 °F

Scattered clouds.


Feels Like: 64 °F
Forecast: 53 / 69 °F
Wind: 6 mph from North

Location: Stuttgart-Echterdingen

Current Time: Sep 2, 2015 at 1:22:09 PM

Latest Report: Sep 2, 2015 at 12:50 PM


Visibility: N/A

Pressure: 30.04 "Hg

Humidity: 68%

Dew point: 54 °F

Location of StuttgartLocation

Historic Weather in Stuttgart — Graph

°F

Stuttgart temperature yesterday

Maximum temperature yesterday: 79 °F (at 10:50 AM)
Minimum temperature yesterday: 59 °F (at 9:20 PM)
Average temperature yesterday: 67 °F

Past Weeks' High & Low Weather Summary

 TemperatureHumidityPressure
High91 °F (Aug 30, 2:20 PM)100% (Aug 20, 4:50 AM)30.27 "Hg (Aug 20, 4:50 AM)
Low48 °F (Aug 26, 4:50 AM)20% (Aug 31, 5:20 PM)29.71 "Hg (Aug 24, 1:50 PM)
Average68 °F67%30.04 "Hg
* Reported Aug 18 12:20 PM — Sep 2 12:20 PM, Stuttgart, Weather by CustomWeather, © 2015

Note: Actual official high and low records may vary slightly from our data, if they occured in-between our weather recording intervals... More about our weather records

Advertising

Stuttgart weather history for previous 24 hours

 ConditionsComfort  
Time TempWeatherWind HumidityBarometerVisibility
12:20 PM
Wed, Sep 2
64 °FScattered clouds.6 mph68%30.07 "HgN/A
11:50 AM64 °FScattered clouds.5 mph73%30.07 "HgN/A
11:20 AM63 °FScattered clouds.5 mph77%30.07 "HgN/A
10:50 AM63 °FScattered clouds.5 mph77%30.07 "HgN/A
10:20 AM59 °FScattered clouds.6 mph88%30.07 "HgN/A
9:50 AM59 °FScattered clouds.3 mph88%30.07 "HgN/A
9:20 AM59 °FScattered clouds.3 mph94%30.07 "HgN/A
8:50 AM59 °FScattered clouds.2 mph88%30.07 "HgN/A
8:20 AM57 °FPartly sunny.2 mph94%30.07 "HgN/A
7:50 AM55 °FPartly sunny.2 mph94%30.07 "HgN/A
7:20 AM54 °FPassing clouds.2 mph100%30.07 "HgN/A
6:50 AM54 °FPassing clouds.6 mph94%30.07 "HgN/A
6:20 AM54 °FPartly cloudy.6 mph100%30.07 "HgN/A
5:50 AM54 °FPartly cloudy.2 mph94%30.07 "HgN/A
5:20 AM54 °FPartly cloudy.1 mph100%30.07 "HgN/A
4:50 AM54 °FPassing clouds.2 mph94%30.07 "HgN/A
4:20 AM55 °FPassing clouds.2 mph94%30.07 "HgN/A
3:50 AM54 °FPassing clouds.1 mph100%30.07 "HgN/A
3:20 AM55 °FPassing clouds.2 mph94%30.07 "HgN/A
2:50 AM55 °FPassing clouds.2 mph100%30.07 "HgN/A
2:20 AM55 °FPassing clouds.2 mph94%30.07 "HgN/A
1:50 AM57 °FPassing clouds.3 mph94%30.07 "HgN/A
1:20 AM57 °FPassing clouds.5 mph94%30.07 "HgN/A
12:50 AM55 °FPassing clouds.1 mph100%30.07 "HgN/A
11:20 PM
Tue, Sep 1
59 °FPartly cloudy.6 mph94%30.07 "HgN/A
10:50 PM59 °FPartly cloudy.5 mph94%30.07 "HgN/A
10:20 PM59 °FPassing clouds.6 mph94%30.04 "HgN/A
9:50 PM59 °FPassing clouds.9 mph94%30.04 "HgN/A
9:20 PM59 °FLight rain. Partly cloudy.8 mph94%30.04 "HgN/A
8:50 PM61 °FLight rain. Partly sunny.15 mph88%30.04 "Hg4 mi
8:20 PM63 °FLight rain. Broken clouds.7 mph94%30.01 "HgN/A
7:50 PM63 °FLight rain. Broken clouds.10 mph94%29.98 "HgN/A
7:20 PM63 °FLight rain. Broken clouds.9 mph88%29.98 "HgN/A
6:50 PM63 °FLight rain. Broken clouds.7 mph94%29.98 "HgN/A
6:20 PM63 °FLight rain. More clouds than sun.5 mph94%29.98 "HgN/A
5:50 PM63 °FRain. More clouds than sun.12 mph94%29.95 "Hg5 mi
5:20 PM63 °FLight rain. Partly sunny.15 mph94%29.95 "HgN/A
4:50 PM66 °FRain showers. Partly sunny.17 mph94%29.92 "Hg4 mi
4:20 PM75 °FScattered showers. Broken clouds.18 mph57%29.89 "HgN/A
3:50 PM77 °FPartly sunny.14 mph47%29.86 "HgN/A
3:20 PM75 °FBroken clouds.7 mph57%29.86 "HgN/A
2:50 PM73 °FBroken clouds.7 mph61%29.89 "HgN/A
2:20 PM70 °FBroken clouds.7 mph69%29.89 "HgN/A
1:50 PM70 °FBroken clouds.7 mph73%29.89 "HgN/A
1:20 PM68 °FLight rain. Broken clouds.10 mph78%29.89 "HgN/A
Weather by CustomWeather, © 2015

See weather overviewHow to use our weather pages